Вернуться в каталог

FENGYUN 1C DEB

АктивенPO
NORAD 31300·DEBRIS·🇨🇳 China

Запущен May 10, 1999 с Taiyuan Satellite Launch Center

Loading…

Ближайшие Пролёты (ближайшие 24 часа)

TLE

СвежийSource: Space-Track

Эпоха: Sep 14, 2026, 03:01 UTC

1 31300U 99025BPJ 26257.12629693  .00001641  00000-0  83744-3 0  9993
2 31300  99.5381   0.6505 0058864  12.2789 107.8499 14.16353723   485

Отслеживайте FENGYUN 1C DEB в реальном времени с AllMySat

Download on the App Store